Location: Bodest
(46.3000°N, 22.5667°E)
Time: 23:11:47
(UTC+00:00)

ATLAS 5 CENTAUR R/B - Pass Details

Date: 16 October 2021
Orbit: 497 x 1159 km, 63.4° (Epoch: 25 November)

Event Time Altitude Azimuth Distance (km) Brightness Sun altitude
Rises 16:57:27 0° 195° (SSW) 2,577 4.9 -13.9°
Reaches altitude 10° 16:59:38 10° 186° (S) 1,721 3.9 -14.3°
Maximum altitude 17:03:06 35° 119° (ESE) 878 1.9 -14.9°
Enters shadow 17:04:30 27° 78° (ENE) 1,088 2.2 -15.1°
